Tracking 28520 objects as of 29-Feb-2024
HD Live streaming from Space Station
objects crossing your sky now

COSMOS 1470

Track COSMOS 1470 now!
10-day predictions
COSMOS 1470 is classified as:


NORAD ID: 14147
Int'l Code: 1983-061A
Perigee: 501.7 km
Apogee: 521.5 km
Inclination: 82.5 °
Period: 94.7 minutes
Semi major axis: 6882 km
RCS: 8.3388 m2 (large)
Launch date: June 23, 1983
Source: Commonwealth of Independent States (former USSR) (CIS)
Launch site: PLESETSK MISSILE AND SPACE COMPLEX (PKMTR)
Your satellite tracking list
Your tracking list is empty




NASA's NSSDC Master Catalog

Two Line Element Set (TLE):
1 14147U 83061A   24059.74312205  .00005877  00000-0  26723-3 0  9999
2 14147  82.4801 148.3710 0014410 105.5493 254.7334 15.20447123974493
Source of the keplerian elements: AFSPC